Junction, TX

8:59 PM CDT on August 23, 2017 (GMT -0500)
Kimble County

Weather History for KJCT - November, 2012

Change the Weather History Date:

Tuesday, November 13, 2012

  Actual Average Record
Temperature  
Mean Temperature 47 °F -  
Max Temperature 57 °F 66 °F 86 °F (2011)
Min Temperature 37 °F 43 °F 27 °F (2013)
Degree Days  
Heating Degree Days 18    
Moisture  
Dew Point 19 °F    
Average Humidity 37    
Maximum Humidity 59    
Minimum Humidity 15    
Precipitation  
Precipitation 0.00 in - - ()
Sea Level Pressure  
Sea Level Pressure 30.33 in    
Wind  
Wind Speed 4 mph (ESE)    
Max Wind Speed 15 mph    
Max Gust Speed -    
Visibility 9 miles    
Events      
Averages and records for this station are not official NWS values.
T = Trace of Precipitation, MM = Missing Value Source: NWS Daily Summary

Daily Weather History Graph

Daily Weather History Graph

Search for Another Location

Airport or City:

Trip Planner

Search our weather history database for the weather conditions in past years. The results will help you decide how hot, cold, wet, or windy it might be!

Date:

Astronomy

Nov. 13, 2012 Rise Set
Actual Time 7:03 AM CST 5:42 PM CST
Civil Twilight 6:38 AM CST 6:08 PM CST
Nautical Twilight 6:09 AM CST 6:37 PM CST
Astronomical Twilight 5:40 AM CST 7:05 PM CST
Moon 6:43 AM CST (11/13) 5:39 PM CST (11/13)
Length of Visible Light 11h 29m
Length of Day
10h 38m
Waning Crescent, 0% of the Moon is Illuminated
Nov 13
Waning Crescent
Nov 13
New
Nov 20
First Quarter
Nov 28
Full
Dec 6
Last Quarter

Hourly Weather History & Observations

Time (CST) Temp. Windchill Dew Point Humidity Pressure Visibility Wind Dir Wind Speed Gust Speed Precip Events Conditions
12:51 AM 39.0 °F 35.7 °F 21.9 °F 50% 30.40 in 10.0 mi East 4.6 mph - N/A   Clear
1:51 AM 37.9 °F 35.5 °F 23.0 °F 55% 30.38 in 10.0 mi East 3.5 mph - N/A   Clear
2:51 AM 37.0 °F 34.5 °F 23.0 °F 57% 30.36 in 10.0 mi ESE 3.5 mph - N/A   Clear
3:51 AM 37.0 °F - 23.0 °F 57% 30.37 in 10.0 mi Calm Calm - N/A   Clear
4:51 AM 37.0 °F - 24.1 °F 59% 30.36 in 10.0 mi Calm Calm - N/A   Clear
5:51 AM 37.0 °F - 24.1 °F 59% 30.38 in 10.0 mi Calm Calm - N/A   Mostly Cloudy
6:51 AM 39.0 °F - 24.1 °F 55% 30.40 in 10.0 mi Calm Calm - N/A   Overcast
7:51 AM 41.0 °F - 23.0 °F 49% 30.41 in 10.0 mi Calm Calm - N/A   Overcast
8:51 AM 44.1 °F 40.8 °F 23.0 °F 43% 30.41 in 10.0 mi East 5.8 mph - N/A   Overcast
9:51 AM 50.0 °F - 19.9 °F 31% 30.40 in 10.0 mi East 11.5 mph - N/A   Mostly Cloudy
10:51 AM 55.0 °F - 16.0 °F 22% 30.39 in 9.0 mi SE 15.0 mph - N/A   Mostly Cloudy
11:51 AM 54.0 °F - 14.0 °F 21% 30.37 in 9.0 mi SSE 10.4 mph - N/A   Overcast
12:51 PM 55.9 °F - 14.0 °F 19% 30.33 in 9.0 mi SSE 9.2 mph - N/A   Overcast
1:51 PM 57.0 °F - 10.0 °F 15% 30.28 in 9.0 mi SSE 9.2 mph - N/A   Mostly Cloudy
2:51 PM 57.0 °F - 12.0 °F 17% 30.27 in 9.0 mi South 8.1 mph - N/A   Partly Cloudy
3:51 PM 57.0 °F - 10.9 °F 16% 30.26 in 9.0 mi South 9.2 mph - N/A   Clear
4:51 PM 55.9 °F - 12.0 °F 18% 30.25 in 8.0 mi SSE 6.9 mph - N/A   Clear
5:51 PM 52.0 °F - 18.0 °F 26% 30.25 in 8.0 mi ESE 6.9 mph - N/A   Clear
6:51 PM 48.0 °F - 18.0 °F 30% 30.26 in 8.0 mi East 4.6 mph - N/A   Clear
7:51 PM 46.0 °F 43.9 °F 17.1 °F 31% 30.29 in 9.0 mi ENE 4.6 mph - N/A   Clear
8:51 PM 43.0 °F - 17.1 °F 35% 30.29 in 9.0 mi Calm Calm - N/A   Clear
9:51 PM 43.0 °F 40.3 °F 18.0 °F 37% 30.30 in 9.0 mi NE 4.6 mph - N/A   Clear
10:51 PM 39.0 °F - 19.0 °F 45% 30.30 in 9.0 mi Calm Calm - N/A   Clear
11:51 PM 37.0 °F - 19.9 °F 50% 30.30 in 9.0 mi Calm Calm - N/A   Mostly Cloudy